Weather History for Toledo, OH

Change the Weather History Date:

Wednesday, January 16, 2013

  Actual Average Record
Temperature  
Mean Temperature 28 °F 25 °F  
Max Temperature 36 °F 32 °F 58 °F (1889)
Min Temperature 19 °F 18 °F -17 °F (1972)
Degree Days  
Heating Degree Days 37 40  
Month to date heating degree days 561 631  
Since 1 July heating degree days 2812 2956  
Cooling Degree Days 0 0  
Month to date cooling degree days 0 0  
Year to date cooling degree days 0 0  
Moisture  
Dew Point 19 °F    
Average Humidity 69    
Maximum Humidity 91    
Minimum Humidity 47    
Precipitation  
Precipitation 0.00 in 0.07 in 0.22 in (1991)
Month to date precipitation 2.77 1.14  
Year to date precipitation 2.77 1.14  
Snow  
Snow 0.00 in 0.40 in - ()
Month to date snowfall T 5.7  
Since 1 July snowfall 7.0 15.2  
Snow Depth 0.00 in    
Sea Level Pressure  
Sea Level Pressure 29.99 in    
Wind  
Wind Speed 9 mph (WSW)    
Max Wind Speed 24 mph    
Max Gust Speed 30 mph    
Visibility 10 miles    
Events      
T = Trace of Precipitation, MM = Missing Value Source: NWS Daily Summary

Daily Weather History Graph

Daily Weather History Graph

Search for Another Location

Airport:

Trip Planner

Search our weather history database for the weather conditions in past years. The results will help you decide how hot, cold, wet, or windy it might be!

Date:

Astronomy

Jan. 16, 2013 Rise Set
Actual Time 7:58 AM EST 5:31 PM EST
Civil Twilight 7:28 AM EST 6:02 PM EST
Nautical Twilight 6:54 AM EST 6:36 PM EST
Astronomical Twilight 6:21 AM EST 7:09 PM EST
Moon 10:30 AM EST (1/16) 11:27 PM EST (1/16)
Length of Visible Light 10h 33m
Length of Day
9h 32m
Waxing Crescent, 28% of the Moon is Illuminated
Jan 16
Waxing Crescent
Jan 18
First Quarter
Jan 26
Full
Feb 3
Last Quarter
Feb 10
New

Hourly Weather History & Observations

Time (EST) Temp. Windchill Dew Point Humidity Pressure Visibility Wind Dir Wind Speed Gust Speed Precip Events Conditions
12:52 AM 24.1 °F - 18.0 °F 77% 30.14 in 10.0 mi Calm Calm - N/A   Clear
1:52 AM 23.0 °F - 18.0 °F 81% 30.11 in 10.0 mi Calm Calm - N/A   Clear
2:52 AM 23.0 °F 15.8 °F 18.0 °F 81% 30.09 in 10.0 mi North 5.8 mph - N/A   Clear
3:52 AM 24.1 °F - 19.0 °F 81% 30.08 in 10.0 mi Calm Calm - N/A   Clear
4:52 AM 24.1 °F - 19.0 °F 81% 30.06 in 10.0 mi Calm Calm - N/A   Partly Cloudy
5:52 AM 24.1 °F - 19.0 °F 81% 30.02 in 10.0 mi Calm Calm - N/A   Overcast
6:52 AM 21.0 °F - 18.0 °F 88% 30.02 in 8.0 mi Calm Calm - N/A   Overcast
7:52 AM 21.0 °F - 18.0 °F 88% 30.00 in 8.0 mi Calm Calm - N/A   Overcast
8:52 AM 19.9 °F - 18.0 °F 92% 29.99 in 5.0 mi Calm Calm - N/A   Overcast
9:52 AM 26.1 °F 17.6 °F 21.0 °F 81% 30.00 in 8.0 mi WSW 8.1 mph - N/A   Clear
10:52 AM 28.9 °F 18.2 °F 21.0 °F 72% 29.99 in 10.0 mi West 13.8 mph - N/A   Clear
11:52 AM 30.9 °F 21.2 °F 21.0 °F 67% 29.97 in 10.0 mi WSW 12.7 mph - N/A   Clear
12:52 PM 33.1 °F 23.9 °F 18.0 °F 54% 29.92 in 10.0 mi West 12.7 mph - N/A   Clear
1:52 PM 35.1 °F 25.2 °F 18.0 °F 50% 29.90 in 10.0 mi SW 16.1 mph 20.7 mph N/A   Clear
2:52 PM 36.0 °F 26.7 °F 17.1 °F 46% 29.88 in 10.0 mi WSW 15.0 mph - N/A   Clear
3:52 PM 35.6 °F 26.6 °F 17.6 °F 48% 29.87 in 10.0 mi SW 13.8 mph 24.2 mph N/A   Clear
4:52 PM 34.0 °F 25.5 °F 19.0 °F 54% 29.91 in 10.0 mi SW 11.5 mph - N/A   Clear
5:52 PM 32.0 °F 23.0 °F 19.9 °F 61% 29.92 in 10.0 mi SW 11.5 mph 18.4 mph N/A   Clear
6:52 PM 33.1 °F 23.4 °F 19.9 °F 59% 29.94 in 10.0 mi SW 13.8 mph 20.7 mph N/A   Overcast
7:52 PM 33.1 °F 21.9 °F 19.9 °F 59% 29.94 in 10.0 mi WSW 18.4 mph 24.2 mph N/A   Overcast
8:52 PM 33.1 °F 21.2 °F 21.0 °F 61% 29.96 in 10.0 mi WSW 20.7 mph 28.8 mph N/A   Overcast
9:52 PM 33.1 °F 22.2 °F 21.0 °F 61% 29.99 in 10.0 mi West 17.3 mph - N/A   Overcast
10:38 PM 33.8 °F 23.5 °F 23.0 °F 65% 29.96 in 10.0 mi WSW 16.1 mph - N/A   Overcast
10:52 PM 33.1 °F 23.0 °F 23.0 °F 66% 29.99 in 10.0 mi WSW 15.0 mph - N/A   Overcast
11:52 PM 33.1 °F 23.0 °F 25.0 °F 72% 30.01 in 10.0 mi WSW 15.0 mph - N/A   Overcast